Year,Month,Day,Hour,Minute,Value (Times are PST for temperature in C)
2007,09,24,00,00,7.90
2007,09,24,00,01,7.90
2007,09,24,00,02,7.90
2007,09,24,00,03,7.80
2007,09,24,00,04,7.80
2007,09,24,00,05,7.80
2007,09,24,00,06,7.70
2007,09,24,00,07,7.70
2007,09,24,00,08,7.70
2007,09,24,00,09,7.60
2007,09,24,00,10,7.60
2007,09,24,00,11,7.60
2007,09,24,00,12,7.50
2007,09,24,00,13,7.50
2007,09,24,00,14,7.50
2007,09,24,00,15,7.50
2007,09,24,00,16,7.40
2007,09,24,02,02,6.60
2007,09,24,02,03,6.60
2007,09,24,02,04,6.60
2007,09,24,02,05,6.60
2007,09,24,02,06,6.60
2007,09,24,02,07,6.60
2007,09,24,02,08,6.60
2007,09,24,02,09,6.60
2007,09,24,02,10,6.60
2007,09,24,02,11,6.60
2007,09,24,02,12,6.60
2007,09,24,02,13,6.60
2007,09,24,02,14,6.60
2007,09,24,02,15,6.60
2007,09,24,02,16,6.60
2007,09,24,02,17,6.50
2007,09,24,02,18,6.40
2007,09,24,02,19,6.40
2007,09,24,02,20,6.40
2007,09,24,02,21,6.40
2007,09,24,02,22,6.40
2007,09,24,02,23,6.40
2007,09,24,02,24,6.40
2007,09,24,02,25,6.40
2007,09,24,02,26,6.40
2007,09,24,02,27,6.40
2007,09,24,02,28,6.30
2007,09,24,02,29,6.30
2007,09,24,02,30,6.30
2007,09,24,02,31,6.20
2007,09,24,02,32,6.20
2007,09,24,02,33,6.20
2007,09,24,02,34,6.20
2007,09,24,02,35,6.20
2007,09,24,02,36,6.20
2007,09,24,02,37,6.20
2007,09,24,02,38,6.20
2007,09,24,02,39,6.20
2007,09,24,02,40,6.20
2007,09,24,02,41,6.10
2007,09,24,02,42,6.10
2007,09,24,02,43,6.10
2007,09,24,02,44,6.10
2007,09,24,02,45,6.10
2007,09,24,02,46,6.00
2007,09,24,02,47,6.00
2007,09,24,02,48,6.00
2007,09,24,02,49,6.00
2007,09,24,02,50,6.00
2007,09,24,02,51,6.00
2007,09,24,02,52,6.00
2007,09,24,02,53,6.00
2007,09,24,02,54,6.00
2007,09,24,02,55,6.00
2007,09,24,02,56,6.00
2007,09,24,02,57,6.00
2007,09,24,02,58,6.00
2007,09,24,02,59,6.00
2007,09,24,03,00,6.00
2007,09,24,03,01,6.00
2007,09,24,03,02,6.00
2007,09,24,03,03,6.00
2007,09,24,03,04,6.00
2007,09,24,03,05,6.00
2007,09,24,03,06,6.00
2007,09,24,03,07,5.90
2007,09,24,03,08,5.90
2007,09,24,03,09,5.90
2007,09,24,03,10,5.90
2007,09,24,03,11,5.90
2007,09,24,03,12,5.90
2007,09,24,03,13,5.90
2007,09,24,03,14,5.90
2007,09,24,03,15,5.90
2007,09,24,03,16,5.90
2007,09,24,03,17,5.90
2007,09,24,03,18,5.90
2007,09,24,03,19,5.90
2007,09,24,03,20,6.00
2007,09,24,03,21,5.90
2007,09,24,03,22,5.90
2007,09,24,03,23,5.90
2007,09,24,03,24,5.90
2007,09,24,03,25,5.90
2007,09,24,03,26,5.90
2007,09,24,03,27,5.90
2007,09,24,03,28,5.90
2007,09,24,03,29,5.80
2007,09,24,03,30,5.80
2007,09,24,03,31,5.80
2007,09,24,03,32,5.80
2007,09,24,03,33,5.80
2007,09,24,03,34,5.80
2007,09,24,03,35,5.90
2007,09,24,03,36,5.90
2007,09,24,03,37,5.90
2007,09,24,03,38,5.90
2007,09,24,03,39,5.90
2007,09,24,03,40,5.90
2007,09,24,03,41,5.90
2007,09,24,03,42,5.90
2007,09,24,03,43,5.90
2007,09,24,03,44,5.90
2007,09,24,03,45,5.90
2007,09,24,03,46,5.90
2007,09,24,03,47,5.80
2007,09,24,03,48,5.80
2007,09,24,03,49,5.80
2007,09,24,03,50,5.80
2007,09,24,03,51,5.80
2007,09,24,03,52,5.80
2007,09,24,03,53,5.80
2007,09,24,03,54,5.80
2007,09,24,03,55,5.80
2007,09,24,03,56,5.80
2007,09,24,03,57,5.80
2007,09,24,03,58,5.70
2007,09,24,03,59,5.70
2007,09,24,04,00,5.70
2007,09,24,04,01,5.70
2007,09,24,04,02,5.70
2007,09,24,04,03,5.70
2007,09,24,04,04,5.70
2007,09,24,04,05,5.70
2007,09,24,04,06,5.70
2007,09,24,04,07,5.70
2007,09,24,04,08,5.70
2007,09,24,04,09,5.70
2007,09,24,04,10,5.60
2007,09,24,04,11,5.60
2007,09,24,04,12,5.60
2007,09,24,04,13,5.60
2007,09,24,04,14,5.60
2007,09,24,04,15,5.60
2007,09,24,04,16,5.50
2007,09,24,04,17,5.50
2007,09,24,04,18,5.50
2007,09,24,04,19,5.50
2007,09,24,04,20,5.50
2007,09,24,04,21,5.50
2007,09,24,04,22,5.50
2007,09,24,04,23,5.40
2007,09,24,04,24,5.40
2007,09,24,04,25,5.40
2007,09,24,04,26,5.40
2007,09,24,04,27,5.30
2007,09,24,04,28,5.30
2007,09,24,04,29,5.30
2007,09,24,04,30,5.30
2007,09,24,04,31,5.30
2007,09,24,04,32,5.30
2007,09,24,04,33,5.30
2007,09,24,04,34,5.30
2007,09,24,04,35,5.30
2007,09,24,04,36,5.30
2007,09,24,04,37,5.30
2007,09,24,04,38,5.30
2007,09,24,04,39,5.30
2007,09,24,04,40,5.30
2007,09,24,04,41,5.30
2007,09,24,04,42,5.30
2007,09,24,04,43,5.30
2007,09,24,04,44,5.30
2007,09,24,04,45,5.30
2007,09,24,04,46,5.30
2007,09,24,04,47,5.30
2007,09,24,04,48,5.30
2007,09,24,04,49,5.30
2007,09,24,04,50,5.30
2007,09,24,04,51,5.30
2007,09,24,04,52,5.30
2007,09,24,04,53,5.30
2007,09,24,04,54,5.30
2007,09,24,04,55,5.30
2007,09,24,04,56,5.30
2007,09,24,04,57,5.30
2007,09,24,04,58,5.30
2007,09,24,04,59,5.30
2007,09,24,05,00,5.30
2007,09,24,05,01,5.30
2007,09,24,05,02,5.30
2007,09,24,05,03,5.30
2007,09,24,05,04,5.30
2007,09,24,05,05,5.30
2007,09,24,05,06,5.30
2007,09,24,05,07,5.30
2007,09,24,05,08,5.30
2007,09,24,05,09,5.30
2007,09,24,05,10,5.30
2007,09,24,05,11,5.30
2007,09,24,05,12,5.30
2007,09,24,05,13,5.30
2007,09,24,05,14,5.40
2007,09,24,05,15,5.40
2007,09,24,05,16,5.40
2007,09,24,05,17,5.40
2007,09,24,05,18,5.30
2007,09,24,05,19,5.30
2007,09,24,05,20,5.30
2007,09,24,05,21,5.30
2007,09,24,05,22,5.30
2007,09,24,05,23,5.30
2007,09,24,05,24,5.30
2007,09,24,05,25,5.30
2007,09,24,05,26,5.30
2007,09,24,05,27,5.30
2007,09,24,05,28,5.20
2007,09,24,05,29,5.20
2007,09,24,05,30,5.20
2007,09,24,05,31,5.20
2007,09,24,05,32,5.20
2007,09,24,05,33,5.10
2007,09,24,05,34,5.10
2007,09,24,05,35,5.10
2007,09,24,05,36,5.10
2007,09,24,05,37,5.10
2007,09,24,05,38,5.10
2007,09,24,05,39,5.10
2007,09,24,05,40,5.10
2007,09,24,05,41,5.10
2007,09,24,05,42,5.10
2007,09,24,05,43,5.10
2007,09,24,05,44,5.10
2007,09,24,05,45,5.10
2007,09,24,05,46,5.10
2007,09,24,05,47,5.10
2007,09,24,05,48,5.10
2007,09,24,05,49,5.10
2007,09,24,05,50,5.10
2007,09,24,05,51,5.10
2007,09,24,05,52,5.20
2007,09,24,05,53,5.20
2007,09,24,05,54,5.20
2007,09,24,05,55,5.10
2007,09,24,05,56,5.10
2007,09,24,05,57,5.10
2007,09,24,05,58,5.10
2007,09,24,05,59,5.10
2007,09,24,06,00,5.10
2007,09,24,06,01,5.10
2007,09,24,06,02,5.10
2007,09,24,06,03,5.10
2007,09,24,06,04,5.10
2007,09,24,06,05,5.10
2007,09,24,06,06,5.10
2007,09,24,06,07,5.10
2007,09,24,06,08,5.10
2007,09,24,06,09,5.10
2007,09,24,06,10,5.10
2007,09,24,06,11,5.10
2007,09,24,06,12,5.10
2007,09,24,06,13,5.10
2007,09,24,06,14,5.10
2007,09,24,06,15,5.10
2007,09,24,06,16,5.10
2007,09,24,06,17,5.10
2007,09,24,06,18,5.10
2007,09,24,06,19,5.10
2007,09,24,06,20,5.10
2007,09,24,06,21,5.20
2007,09,24,06,22,5.20
2007,09,24,06,23,5.20
2007,09,24,06,24,5.20
2007,09,24,06,25,5.20
2007,09,24,06,26,5.20
2007,09,24,06,27,5.30
2007,09,24,06,28,5.30
2007,09,24,06,29,5.30
2007,09,24,06,30,5.30
2007,09,24,06,31,5.30
2007,09,24,06,32,5.30
2007,09,24,06,33,5.30
2007,09,24,06,34,5.30
2007,09,24,06,35,5.30
2007,09,24,06,36,5.30
2007,09,24,06,37,5.30
2007,09,24,06,38,5.30
2007,09,24,06,39,5.30
2007,09,24,06,40,5.30
2007,09,24,06,41,5.30
2007,09,24,06,42,5.30
2007,09,24,06,43,5.20
2007,09,24,06,44,5.20
2007,09,24,06,45,5.20
2007,09,24,06,46,5.20
2007,09,24,06,47,5.20
2007,09,24,06,48,5.20
2007,09,24,06,49,5.10
2007,09,24,06,50,5.10
2007,09,24,06,51,5.10
2007,09,24,06,52,5.10
2007,09,24,06,53,5.10
2007,09,24,06,54,5.10
2007,09,24,06,55,5.10
2007,09,24,06,56,5.10
2007,09,24,06,57,5.10
2007,09,24,06,58,5.00
2007,09,24,06,59,4.90
2007,09,24,07,00,4.90
2007,09,24,07,01,4.90
2007,09,24,07,02,4.90
2007,09,24,07,03,4.90
2007,09,24,07,04,4.90
2007,09,24,07,05,4.90
2007,09,24,07,06,4.80
2007,09,24,07,07,4.80
2007,09,24,07,08,4.80
2007,09,24,07,09,4.70
2007,09,24,07,10,4.70
2007,09,24,07,11,4.70
2007,09,24,07,12,4.70
2007,09,24,07,13,4.60
2007,09,24,07,14,4.60
2007,09,24,07,15,4.70
2007,09,24,07,16,4.70
2007,09,24,07,17,4.80
2007,09,24,07,18,4.80
2007,09,24,07,19,4.90
2007,09,24,07,20,4.90
2007,09,24,07,21,4.90
2007,09,24,07,22,5.00
2007,09,24,07,23,5.10
2007,09,24,07,24,5.10
2007,09,24,07,25,5.10
2007,09,24,07,26,5.10
2007,09,24,07,27,5.10
2007,09,24,07,28,5.10
2007,09,24,07,29,5.10
2007,09,24,07,30,5.10
2007,09,24,07,31,5.10
2007,09,24,07,32,5.10
2007,09,24,07,33,5.10
2007,09,24,07,34,5.10
2007,09,24,07,35,5.10
2007,09,24,07,36,5.10
2007,09,24,07,37,5.10
2007,09,24,07,38,5.10
2007,09,24,07,39,5.10
2007,09,24,07,40,5.20
2007,09,24,07,41,5.20
2007,09,24,07,42,5.20
2007,09,24,07,43,5.20
2007,09,24,07,44,5.20
2007,09,24,07,45,5.20
2007,09,24,07,46,5.20
2007,09,24,07,47,5.30
2007,09,24,07,48,5.30
2007,09,24,07,49,5.30
2007,09,24,07,50,5.30
2007,09,24,07,51,5.30
2007,09,24,07,52,5.30
2007,09,24,07,53,5.40
2007,09,24,07,54,5.40
2007,09,24,07,55,5.40
2007,09,24,07,56,5.40
2007,09,24,07,57,5.50
2007,09,24,07,58,5.50
2007,09,24,07,59,5.50
2007,09,24,08,00,5.60
2007,09,24,08,01,5.60
2007,09,24,08,02,5.60
2007,09,24,08,03,5.60
2007,09,24,08,04,5.70
2007,09,24,08,05,5.70
2007,09,24,08,06,5.70
2007,09,24,08,07,5.70
2007,09,24,08,08,5.70
2007,09,24,08,09,5.70
2007,09,24,08,10,5.80
2007,09,24,08,11,5.80
2007,09,24,08,12,5.90
2007,09,24,08,13,5.90
2007,09,24,08,14,6.00
2007,09,24,08,15,6.10
2007,09,24,08,16,6.20
2007,09,24,08,17,6.20
2007,09,24,08,18,6.30
2007,09,24,08,19,6.40
2007,09,24,08,20,6.40
2007,09,24,08,21,6.60
2007,09,24,08,22,6.70
2007,09,24,08,23,6.70
2007,09,24,08,24,6.80
2007,09,24,08,25,6.80
2007,09,24,08,26,6.80
2007,09,24,08,27,6.80
2007,09,24,08,28,6.90
2007,09,24,08,29,6.90
2007,09,24,08,30,6.90
2007,09,24,08,31,6.90
2007,09,24,08,32,7.00
2007,09,24,08,33,7.00
2007,09,24,08,34,7.00
2007,09,24,08,35,7.00
2007,09,24,08,36,7.00
2007,09,24,08,37,7.00
2007,09,24,08,38,7.00
2007,09,24,08,39,7.00
2007,09,24,08,40,7.00
2007,09,24,08,41,7.00
2007,09,24,08,42,7.00
2007,09,24,08,43,7.00
2007,09,24,08,44,7.00
2007,09,24,08,45,7.00
2007,09,24,08,46,7.00
2007,09,24,08,47,7.00
2007,09,24,08,48,7.10
2007,09,24,08,49,7.10
2007,09,24,08,50,7.10
2007,09,24,08,51,7.10
2007,09,24,08,52,7.10
2007,09,24,08,53,7.10
2007,09,24,08,54,7.10
2007,09,24,08,55,7.20
2007,09,24,08,56,7.20
2007,09,24,08,57,7.20
2007,09,24,08,58,7.30
2007,09,24,08,59,7.30
2007,09,24,09,00,7.40
2007,09,24,09,01,7.50
2007,09,24,09,02,7.50
2007,09,24,09,03,7.60
2007,09,24,09,04,7.60
2007,09,24,09,05,7.70
2007,09,24,09,06,7.70
2007,09,24,09,07,7.80
2007,09,24,09,08,7.80
2007,09,24,09,09,7.80
2007,09,24,09,10,7.80
2007,09,24,09,11,7.80
2007,09,24,09,12,7.90
2007,09,24,09,13,7.90
2007,09,24,09,14,8.00
2007,09,24,09,15,8.00
2007,09,24,09,16,8.00
2007,09,24,09,17,8.10
2007,09,24,09,18,8.20
2007,09,24,09,19,8.20
2007,09,24,09,20,8.30
2007,09,24,09,21,8.40
2007,09,24,09,22,8.40
2007,09,24,09,23,8.40
2007,09,24,09,24,8.40
2007,09,24,09,25,8.50
2007,09,24,09,26,8.50
2007,09,24,09,27,8.60
2007,09,24,09,28,8.60
2007,09,24,09,29,8.70
2007,09,24,09,30,8.80
2007,09,24,09,31,8.90
2007,09,24,09,32,8.90
2007,09,24,09,33,8.90
2007,09,24,09,34,8.90
2007,09,24,09,35,8.90
2007,09,24,09,36,8.90
2007,09,24,09,37,8.80
2007,09,24,09,38,8.90
2007,09,24,09,39,9.00
2007,09,24,09,40,9.00
2007,09,24,09,41,9.10
2007,09,24,09,42,9.20
2007,09,24,09,43,9.30
2007,09,24,09,44,9.30
2007,09,24,09,45,9.40
2007,09,24,09,46,9.30
2007,09,24,09,47,9.30
2007,09,24,09,48,9.40
2007,09,24,09,49,9.50
2007,09,24,09,50,9.50
2007,09,24,09,51,9.60
2007,09,24,09,52,9.60
2007,09,24,09,53,9.70
2007,09,24,09,54,9.70
2007,09,24,09,55,9.70
2007,09,24,09,56,9.60
2007,09,24,09,57,9.60
2007,09,24,09,58,9.60
2007,09,24,09,59,9.60
2007,09,24,10,00,9.60
2007,09,24,10,01,9.70
2007,09,24,10,02,9.70
2007,09,24,10,03,9.70
2007,09,24,10,04,9.70
2007,09,24,10,05,9.70
2007,09,24,10,06,9.70
2007,09,24,10,07,9.70
2007,09,24,10,08,9.70
2007,09,24,10,09,9.70
2007,09,24,10,10,9.70
2007,09,24,10,11,9.80
2007,09,24,10,12,9.80
2007,09,24,10,13,9.90
2007,09,24,10,14,9.90
2007,09,24,10,15,9.90
2007,09,24,10,16,9.90
2007,09,24,10,17,9.70
2007,09,24,10,18,9.60
2007,09,24,10,19,9.50
2007,09,24,10,20,9.50
2007,09,24,10,21,9.50
2007,09,24,10,22,9.40
2007,09,24,10,23,9.30
2007,09,24,10,24,9.30
2007,09,24,10,25,9.20
2007,09,24,10,26,9.20
2007,09,24,10,27,9.20
2007,09,24,10,28,9.20
2007,09,24,10,29,9.20
2007,09,24,10,30,9.20
2007,09,24,10,31,9.20
2007,09,24,10,32,9.20
2007,09,24,10,33,9.20
2007,09,24,10,34,9.20
2007,09,24,10,35,9.20
2007,09,24,10,36,9.20
2007,09,24,10,37,9.20
2007,09,24,10,38,9.20
2007,09,24,10,39,9.40
2007,09,24,10,40,9.40
2007,09,24,10,41,9.40
2007,09,24,10,42,9.30
2007,09,24,10,43,9.30
2007,09,24,10,44,9.30
2007,09,24,10,45,9.30
2007,09,24,10,46,9.40
2007,09,24,10,47,9.50
2007,09,24,10,48,9.60
2007,09,24,10,49,9.60
2007,09,24,10,50,9.70
2007,09,24,10,51,9.80
2007,09,24,10,52,9.90
2007,09,24,10,53,10.00
2007,09,24,10,54,10.20
2007,09,24,10,55,10.30
2007,09,24,10,56,10.40
2007,09,24,10,57,10.40
2007,09,24,10,58,10.40
2007,09,24,10,59,10.40
2007,09,24,11,00,10.30
2007,09,24,11,01,10.20
2007,09,24,11,02,10.10
2007,09,24,11,03,10.00
2007,09,24,11,04,9.90
2007,09,24,11,05,9.90
2007,09,24,11,06,10.00
2007,09,24,11,07,9.90
2007,09,24,11,08,9.80
2007,09,24,11,09,9.80
2007,09,24,11,10,9.70
2007,09,24,11,11,9.70
2007,09,24,11,12,9.60
2007,09,24,11,13,9.60
2007,09,24,11,14,9.50
2007,09,24,11,15,9.50
2007,09,24,11,16,9.50
2007,09,24,11,17,9.50
2007,09,24,11,18,9.60
2007,09,24,11,19,9.70
2007,09,24,11,20,9.70
2007,09,24,11,21,9.70
2007,09,24,11,22,9.80
2007,09,24,11,23,9.80
2007,09,24,11,24,9.90
2007,09,24,11,25,9.80
2007,09,24,11,26,9.70
2007,09,24,11,27,9.70
2007,09,24,11,28,9.70
2007,09,24,11,29,9.70
2007,09,24,11,30,9.70
2007,09,24,11,31,9.70
2007,09,24,11,32,9.70
2007,09,24,11,33,9.80
2007,09,24,11,34,9.80
2007,09,24,11,35,9.70
2007,09,24,11,36,9.70
2007,09,24,11,37,9.70
2007,09,24,11,38,9.70
2007,09,24,11,39,9.70
2007,09,24,11,40,9.70
2007,09,24,11,41,9.70
2007,09,24,11,42,9.70
2007,09,24,11,43,9.80
2007,09,24,11,44,9.70
2007,09,24,11,45,9.70
2007,09,24,11,46,9.70
2007,09,24,11,47,9.70
2007,09,24,11,48,9.60
2007,09,24,11,49,9.60
2007,09,24,11,50,9.50
2007,09,24,11,51,9.50
2007,09,24,11,52,9.60
2007,09,24,11,53,9.60
2007,09,24,11,54,9.60
2007,09,24,11,55,9.60
2007,09,24,11,56,9.60
2007,09,24,11,57,9.60
2007,09,24,11,58,9.60
2007,09,24,11,59,9.60
2007,09,24,12,00,9.60
2007,09,24,12,01,9.60
2007,09,24,12,02,9.50
2007,09,24,12,03,9.40
2007,09,24,12,04,9.30
2007,09,24,12,05,9.40
2007,09,24,12,06,9.40
2007,09,24,12,07,9.50
2007,09,24,12,08,9.50
2007,09,24,12,09,9.50
2007,09,24,12,10,9.60
2007,09,24,12,11,9.70
2007,09,24,12,12,9.70
2007,09,24,12,13,9.70
2007,09,24,12,14,9.60
2007,09,24,12,15,9.50
2007,09,24,12,16,9.50
2007,09,24,12,17,9.50
2007,09,24,12,18,9.50
2007,09,24,12,19,9.50
2007,09,24,12,20,9.50
2007,09,24,12,21,9.50
2007,09,24,12,22,9.60
2007,09,24,12,23,9.60
2007,09,24,12,24,9.70
2007,09,24,12,25,9.70
2007,09,24,12,26,9.70
2007,09,24,12,27,9.70
2007,09,24,12,28,9.70
2007,09,24,12,29,9.70
2007,09,24,12,30,9.70
2007,09,24,12,31,9.70
2007,09,24,12,32,9.70
2007,09,24,12,33,9.70
2007,09,24,12,34,9.60
2007,09,24,12,35,9.50
2007,09,24,12,36,9.50
2007,09,24,12,37,9.40
2007,09,24,12,38,9.30
2007,09,24,12,39,9.30
2007,09,24,12,40,9.30
2007,09,24,12,41,9.30
2007,09,24,12,42,9.30
2007,09,24,12,43,9.30
2007,09,24,12,44,9.30
2007,09,24,12,45,9.30
2007,09,24,12,46,9.30
2007,09,24,12,47,9.20
2007,09,24,12,48,9.20
2007,09,24,12,49,9.30
2007,09,24,12,50,9.30
2007,09,24,12,51,9.20
2007,09,24,12,52,9.20
2007,09,24,12,53,9.20
2007,09,24,12,54,9.20
2007,09,24,12,55,9.20
2007,09,24,12,56,9.20
2007,09,24,12,57,9.30
2007,09,24,12,58,9.40
2007,09,24,12,59,9.40
2007,09,24,13,00,9.30
2007,09,24,13,01,9.30
2007,09,24,13,02,9.30
2007,09,24,13,03,9.20
2007,09,24,13,04,9.20
2007,09,24,13,05,9.20
2007,09,24,13,06,9.20
2007,09,24,13,07,9.20
2007,09,24,13,08,9.20
2007,09,24,13,09,9.20
2007,09,24,13,10,9.20
2007,09,24,13,11,9.20
2007,09,24,13,12,9.20
2007,09,24,13,13,9.20
2007,09,24,13,14,9.20
2007,09,24,13,15,9.20
2007,09,24,13,16,9.20
2007,09,24,13,17,9.20
2007,09,24,13,18,9.20
2007,09,24,13,19,9.20
2007,09,24,13,20,9.20
2007,09,24,13,21,9.20
2007,09,24,13,22,9.20
2007,09,24,13,23,9.20
2007,09,24,13,24,9.20
2007,09,24,13,25,9.30
2007,09,24,13,26,9.40
2007,09,24,13,27,9.50
2007,09,24,13,28,9.50
2007,09,24,13,29,9.60
2007,09,24,13,30,9.70
2007,09,24,13,31,9.70
2007,09,24,13,32,9.70
2007,09,24,13,33,9.60
2007,09,24,13,34,9.50
2007,09,24,13,35,9.40
2007,09,24,13,36,9.30
2007,09,24,13,37,9.30
2007,09,24,13,38,9.30
2007,09,24,13,39,9.30
2007,09,24,13,40,9.30
2007,09,24,13,41,9.30
2007,09,24,13,42,9.20
2007,09,24,13,43,9.20
2007,09,24,13,44,9.20
2007,09,24,13,45,9.30
2007,09,24,13,46,9.40
2007,09,24,13,47,9.40
2007,09,24,13,48,9.40
2007,09,24,13,49,9.40
2007,09,24,13,50,9.50
2007,09,24,13,51,9.50
2007,09,24,13,52,9.50
2007,09,24,13,53,9.50
2007,09,24,13,54,9.50
2007,09,24,13,55,9.50
2007,09,24,13,56,9.40
2007,09,24,13,57,9.30
2007,09,24,13,58,9.30
2007,09,24,13,59,9.20
2007,09,24,14,00,9.20
2007,09,24,14,01,9.30
2007,09,24,14,02,9.40
2007,09,24,14,03,9.40
2007,09,24,14,04,9.40
2007,09,24,14,05,9.50
2007,09,24,14,06,9.60
2007,09,24,14,07,9.60
2007,09,24,14,08,9.50
2007,09,24,14,09,9.40
2007,09,24,14,10,9.30
2007,09,24,14,11,9.30
2007,09,24,14,12,9.30
2007,09,24,14,13,9.30
2007,09,24,14,14,9.40
2007,09,24,14,15,9.40
2007,09,24,14,16,9.40
2007,09,24,14,17,9.40
2007,09,24,14,18,9.30
2007,09,24,14,19,9.20
2007,09,24,14,20,9.20
2007,09,24,14,21,9.20
2007,09,24,14,22,9.20
2007,09,24,14,23,9.20
2007,09,24,14,24,9.20
2007,09,24,14,25,9.20
2007,09,24,14,26,9.30
2007,09,24,14,27,9.40
2007,09,24,14,28,9.40
2007,09,24,14,29,9.40
2007,09,24,14,30,9.40
2007,09,24,14,31,9.40
2007,09,24,14,32,9.50
2007,09,24,14,33,9.60
2007,09,24,14,34,9.70
2007,09,24,14,35,9.70
2007,09,24,14,36,9.60
2007,09,24,14,37,9.60
2007,09,24,14,38,9.60
2007,09,24,14,39,9.60
2007,09,24,14,40,9.60
2007,09,24,14,41,9.60
2007,09,24,14,42,9.50
2007,09,24,14,43,9.40
2007,09,24,14,44,9.40
2007,09,24,14,45,9.30
2007,09,24,14,46,9.30
2007,09,24,14,47,9.40
2007,09,24,14,48,9.40
2007,09,24,14,49,9.40
2007,09,24,14,50,9.30
2007,09,24,14,51,9.30
2007,09,24,14,52,9.20
2007,09,24,14,53,9.20
2007,09,24,14,54,9.20
2007,09,24,14,55,9.10
2007,09,24,14,56,9.10
2007,09,24,14,57,9.10
2007,09,24,14,58,9.10
2007,09,24,14,59,9.00
2007,09,24,15,00,9.00
2007,09,24,15,01,9.00
2007,09,24,15,02,9.00
2007,09,24,15,03,9.00
2007,09,24,15,04,9.10
2007,09,24,15,05,9.10
2007,09,24,15,06,9.00
2007,09,24,15,07,9.00
2007,09,24,15,08,9.00
2007,09,24,15,09,9.10
2007,09,24,15,10,9.10
2007,09,24,15,11,9.10
2007,09,24,15,12,9.10
2007,09,24,15,13,9.10
2007,09,24,15,14,9.10
2007,09,24,15,15,9.10
2007,09,24,15,16,9.10
2007,09,24,15,17,9.20
2007,09,24,15,18,9.20
2007,09,24,15,19,9.20
2007,09,24,15,20,9.20
2007,09,24,15,21,9.20
2007,09,24,15,22,9.20
2007,09,24,15,23,9.20
2007,09,24,15,24,9.20
2007,09,24,15,25,9.20
2007,09,24,15,26,9.20
2007,09,24,15,27,9.20
2007,09,24,15,28,9.20
2007,09,24,15,29,9.10
2007,09,24,15,30,9.10
2007,09,24,15,31,9.10
2007,09,24,15,32,9.20
2007,09,24,15,33,9.10
2007,09,24,15,34,9.20
2007,09,24,15,35,9.20
2007,09,24,15,36,9.10
2007,09,24,15,37,9.10
2007,09,24,15,38,9.10
2007,09,24,15,39,9.20
2007,09,24,15,40,9.20
2007,09,24,15,41,9.20
2007,09,24,15,42,9.20
2007,09,24,15,43,9.20
2007,09,24,15,44,9.20
2007,09,24,15,45,9.20
2007,09,24,15,46,9.30
2007,09,24,15,47,9.30
2007,09,24,15,48,9.40
2007,09,24,15,49,9.50
2007,09,24,15,50,9.50
2007,09,24,15,51,9.50
2007,09,24,15,52,9.50
2007,09,24,15,53,9.50
2007,09,24,15,54,9.50
2007,09,24,15,55,9.60
2007,09,24,15,56,9.70
2007,09,24,15,57,9.70
2007,09,24,15,58,9.70
2007,09,24,15,59,9.70
2007,09,24,16,00,9.70
2007,09,24,16,01,9.70
2007,09,24,16,02,9.80
2007,09,24,16,03,9.80
2007,09,24,16,04,9.80
2007,09,24,16,05,9.80
2007,09,24,16,06,9.80
2007,09,24,16,07,9.80
2007,09,24,16,08,9.90
2007,09,24,16,09,9.90
2007,09,24,16,10,9.90
2007,09,24,16,11,10.00
2007,09,24,16,12,10.10
2007,09,24,16,13,10.10
2007,09,24,16,14,10.10
2007,09,24,16,15,10.10
2007,09,24,16,16,10.10
2007,09,24,16,17,10.20
2007,09,24,16,18,10.30
2007,09,24,16,19,10.40
2007,09,24,16,20,10.40
2007,09,24,16,21,10.40
2007,09,24,16,22,10.60
2007,09,24,16,23,10.60
2007,09,24,16,24,10.60
2007,09,24,16,25,10.60
2007,09,24,16,26,10.60
2007,09,24,16,27,10.60
2007,09,24,16,28,10.60
2007,09,24,16,29,10.60
2007,09,24,16,30,10.70
2007,09,24,16,31,10.70
2007,09,24,16,32,10.70
2007,09,24,16,33,10.70
2007,09,24,16,34,10.70
2007,09,24,16,35,10.70
2007,09,24,16,36,10.80
2007,09,24,16,37,10.80
2007,09,24,16,38,10.80
2007,09,24,16,39,10.90
2007,09,24,16,40,10.90
2007,09,24,16,41,11.00
2007,09,24,16,42,11.10
2007,09,24,16,43,11.10
2007,09,24,16,44,11.10
2007,09,24,16,45,11.10
2007,09,24,16,46,11.10
2007,09,24,16,47,11.10
2007,09,24,16,48,11.10
2007,09,24,16,49,11.10
2007,09,24,16,50,11.10
2007,09,24,16,51,11.10
2007,09,24,16,52,11.10
2007,09,24,16,53,11.10
2007,09,24,16,54,11.10
2007,09,24,16,55,11.10
2007,09,24,16,56,11.10
2007,09,24,16,57,11.10
2007,09,24,16,58,11.10
2007,09,24,16,59,11.10
2007,09,24,17,00,11.10
2007,09,24,17,01,11.10
2007,09,24,17,02,11.10
2007,09,24,17,03,11.10
2007,09,24,17,04,11.10
2007,09,24,17,05,11.10
2007,09,24,17,06,11.10
2007,09,24,17,07,11.10
2007,09,24,17,08,11.10
2007,09,24,17,09,11.00
2007,09,24,17,10,10.90
2007,09,24,17,11,10.90
2007,09,24,17,12,10.90
2007,09,24,17,13,10.90
2007,09,24,17,14,10.90
2007,09,24,17,15,10.90
2007,09,24,17,16,10.90
2007,09,24,17,17,10.90
2007,09,24,17,18,10.90
2007,09,24,17,19,11.00
2007,09,24,17,20,11.10
2007,09,24,17,21,11.10
2007,09,24,17,22,11.10
2007,09,24,17,23,11.10
2007,09,24,17,24,11.10
2007,09,24,17,25,11.20
2007,09,24,17,26,11.20
2007,09,24,17,27,11.20
2007,09,24,17,28,11.30
2007,09,24,17,29,11.30
2007,09,24,17,30,11.30
2007,09,24,17,31,11.40
2007,09,24,17,32,11.40
2007,09,24,17,33,11.40
2007,09,24,17,34,11.50
2007,09,24,17,35,11.60
2007,09,24,17,36,11.60
2007,09,24,17,37,11.60
2007,09,24,17,38,11.70
2007,09,24,17,39,11.70
2007,09,24,17,40,11.80
2007,09,24,17,41,11.80
2007,09,24,17,42,11.80
2007,09,24,17,43,11.80
2007,09,24,17,44,11.90
2007,09,24,17,45,11.90
2007,09,24,17,46,12.00
2007,09,24,17,47,12.00
2007,09,24,17,48,12.00
2007,09,24,17,49,12.10
2007,09,24,17,50,12.10
2007,09,24,17,51,12.20
2007,09,24,17,52,12.20
2007,09,24,17,53,12.20
2007,09,24,17,54,12.20
2007,09,24,17,55,12.30
2007,09,24,17,56,12.30
2007,09,24,17,57,12.30
2007,09,24,17,58,12.30
2007,09,24,17,59,12.30
2007,09,24,18,00,12.30
2007,09,24,18,01,12.40
2007,09,24,18,02,12.40
2007,09,24,18,03,12.30
2007,09,24,18,04,12.30
2007,09,24,18,05,12.30
2007,09,24,18,06,12.30
2007,09,24,18,07,12.30
2007,09,24,18,08,12.30
2007,09,24,18,09,12.30
2007,09,24,18,10,12.30
2007,09,24,18,11,12.30
2007,09,24,18,12,12.30
2007,09,24,18,13,12.30
2007,09,24,18,14,12.30
2007,09,24,18,15,12.20
2007,09,24,18,16,12.20
2007,09,24,18,17,12.20
2007,09,24,18,18,12.20
2007,09,24,18,19,12.20
2007,09,24,18,20,12.10
2007,09,24,18,21,12.10
2007,09,24,18,22,12.10
2007,09,24,18,23,12.10
2007,09,24,18,24,12.00
2007,09,24,18,25,12.00
2007,09,24,18,26,12.00
2007,09,24,18,27,12.00
2007,09,24,18,28,11.90
2007,09,24,18,29,11.90
2007,09,24,18,30,11.90
2007,09,24,18,31,11.90
2007,09,24,18,32,11.80
2007,09,24,18,33,11.80
2007,09,24,18,34,11.80
2007,09,24,18,35,11.80
2007,09,24,18,36,11.80
2007,09,24,18,37,11.80
2007,09,24,18,38,11.80
2007,09,24,18,39,11.80
2007,09,24,18,40,11.80
2007,09,24,18,41,11.80
2007,09,24,18,42,11.80
2007,09,24,18,43,11.80
2007,09,24,18,44,11.80
2007,09,24,18,45,11.90
2007,09,24,18,46,11.90
2007,09,24,18,47,11.90
2007,09,24,18,48,11.90
2007,09,24,18,49,11.90
2007,09,24,18,50,11.90
2007,09,24,18,51,12.00
2007,09,24,18,52,12.00
2007,09,24,18,53,12.00
2007,09,24,18,54,12.00
2007,09,24,18,55,12.00
2007,09,24,18,56,12.00
2007,09,24,18,57,12.00
2007,09,24,18,58,12.10
2007,09,24,18,59,12.10
2007,09,24,19,00,12.10
2007,09,24,19,01,12.10
2007,09,24,19,02,12.10
2007,09,24,19,03,12.10
2007,09,24,19,04,12.10
2007,09,24,19,05,12.10
2007,09,24,19,06,12.10
2007,09,24,19,07,12.10
2007,09,24,19,08,12.20
2007,09,24,19,09,12.20
2007,09,24,19,10,12.20
2007,09,24,19,11,12.20
2007,09,24,19,12,12.20
2007,09,24,19,13,12.20
2007,09,24,19,14,12.20
2007,09,24,19,15,12.20
2007,09,24,19,16,12.20
2007,09,24,19,17,12.20
2007,09,24,19,18,12.20
2007,09,24,19,19,12.20
2007,09,24,19,20,12.20
2007,09,24,19,21,12.20
2007,09,24,19,22,12.20
2007,09,24,19,23,12.20
2007,09,24,19,24,12.10
2007,09,24,19,25,12.10
2007,09,24,19,26,12.10
2007,09,24,19,27,12.10
2007,09,24,19,28,12.10
2007,09,24,19,29,12.10
2007,09,24,19,30,12.10
2007,09,24,19,31,12.10
2007,09,24,19,32,12.10
2007,09,24,19,33,12.10
2007,09,24,19,34,12.10
2007,09,24,19,35,12.00
2007,09,24,19,36,12.00
2007,09,24,19,37,12.00
2007,09,24,19,38,12.00
2007,09,24,19,39,12.00
2007,09,24,19,40,12.00
2007,09,24,19,41,12.00